Theta_e
325 327 327 328 331 330 330 332 333 332 336 336 335 334 335 335 335 335 335 334 335 335 335 335 336 336 337 336 336 338 339 337 338 340 343 341 342 344 341 341 340 340 339 338 339 339 339 341 343 345 347 346 345 346 344 344 344 343 343 341 340 341 340 339 336 335 339 343 340 339 340 341 339 340 338 339 340 340 335 343 344 343 341 340 336
324 326 327 328 328 328 329 330 330 332 333 334 335 336 336 335 337 335 334 335 335 335 334 335 336 336 335 335 335 337 339 337 339 340 338 338 340 343 343 340 340 340 340 337 338 340 344 342 342 343 344 343 345 344 343 343 343 342 342 342 340 342 343 339 337 335 335 340 339 341 338 340 336 339 338 337 337 337 337 337 338 340 336 335 335
322 325 326 326 326 327 328 328 329 330 331 332 332 333 334 335 335 334 334 334 335 335 335 335 335 335 335 336 335 335 337 338 340 340 337 340 339 338 339 339 340 341 339 338 338 344 343 342 341 343 344 344 343 344 344 343 343 341 342 343 342 342 342 342 339 336 336 336 340 338 338 337 337 336 337 337 336 337 335 335 333 335 334 332 331
322 323 324 325 325 326 326 327 328 328 328 328 328 329 330 331 332 333 333 334 334 335 335 334 334 335 335 334 335 335 337 337 336 334 338 339 336 335 337 339 342 344 342 342 342 344 344 342 342 342 343 341 341 342 343 343 343 342 342 342 342 341 342 343 342 339 337 334 338 337 337 336 337 335 337 337 335 334 334 334 333 331 332 329 328
321 321 321 323 324 324 325 326 326 326 326 327 328 329 329 329 330 330 331 333 334 334 334 335 334 333 334 334 334 333 333 334 334 334 340 341 338 337 337 340 344 344 344 343 343 344 343 342 342 342 342 339 341 341 342 343 342 342 341 340 340 341 342 341 341 341 337 334 335 337 338 335 335 335 334 333 332 333 334 331 328 330 330 328 327
321 321 321 321 321 322 324 325 324 325 325 326 327 328 328 328 328 329 329 329 330 332 333 335 335 334 333 333 334 334 333 334 333 332 337 340 342 342 342 344 344 344 344 345 344 344 343 341 341 341 339 339 340 341 342 341 342 341 340 339 339 339 340 341 341 340 339 335 334 331 335 332 332 334 333 332 329 328 329 328 328 328 327 327 327
320 320 320 321 320 322 323 323 324 324 324 325 326 326 326 326 326 326 327 327 328 328 330 329 332 334 333 333 333 333 334 334 334 332 336 338 339 340 340 343 343 342 343 343 343 343 342 340 340 341 340 340 341 341 341 341 341 340 340 340 339 339 339 339 338 336 335 333 332 332 330 333 332 329 330 330 329 328 325 323 323 326 327 326 326
319 319 319 320 320 321 322 323 323 323 324 324 324 325 325 324 324 325 325 325 325 325 326 328 329 330 332 333 333 333 335 335 333 334 338 337 337 336 335 338 340 336 338 340 341 342 342 341 339 340 339 338 338 341 342 340 340 339 340 339 339 338 337 335 333 332 331 330 329 328 329 328 328 330 328 327 325 324 324 323 321 322 323 326 328
318 318 318 319 319 321 322 322 322 322 322 323 323 323 323 323 323 323 323 323 324 323 324 324 325 326 328 331 330 332 333 334 334 331 335 338 335 333 333 335 336 334 335 338 340 341 340 340 337 329 324 318 312 314 315 318 336 337 338 338 336 335 333 331 331 329 329 328 327 327 326 325 327 325 322 321 320 320 323 325 322 323 323 322 325
317 317 317 317 319 319 319 320 320 321 321 321 321 322 321 321 321 321 321 322 322 322 322 323 321 320 322 324 325 326 325 327 328 323 324 334 333 334 336 336 334 334 332 334 336 337 336 330 323 317 314 312 310 306 304 306 309 322 332 334 333 331 331 330 329 328 328 325 324 324 322 321 321 321 321 321 322 323 322 322 320 320 322 321 323
316 316 316 317 318 318 319 319 320 319 320 321 321 320 320 321 321 320 320 320 320 320 320 320 318 315 314 315 317 316 314 314 304 309 310 316 330 333 333 333 334 335 328 331 331 331 330 325 322 318 316 313 309 302 301 301 301 301 302 304 309 326 331 328 327 327 325 325 324 323 320 320 321 321 321 321 322 321 320 321 321 319 317 316 314
315 315 316 317 317 317 317 318 317 317 318 317 317 317 318 318 319 319 319 318 319 319 318 317 315 313 312 311 310 309 309 303 297 299 302 306 317 330 329 327 326 328 329 328 329 328 326 325 324 323 322 320 318 313 307 301 299 299 299 300 299 298 301 318 327 326 326 323 322 321 320 319 319 320 318 318 318 320 320 320 319 317 316 315 315
315 315 315 315 316 317 317 316 315 316 316 315 316 316 316 316 317 318 318 318 318 317 316 314 312 311 310 309 307 307 306 300 297 299 300 301 304 317 322 323 323 322 324 324 324 323 322 321 320 318 318 320 320 318 315 311 304 302 304 305 306 303 299 298 302 322 327 323 322 320 319 320 319 318 317 316 319 318 317 316 316 316 315 314 314
314 314 314 314 315 315 315 314 314 314 314 314 314 315 314 315 316 317 318 317 316 315 316 312 311 310 309 308 307 306 303 299 295 298 299 300 302 308 317 317 317 318 319 320 320 319 320 319 317 317 320 322 323 321 319 319 320 321 323 322 320 316 307 304 305 306 315 323 322 319 318 320 316 317 318 318 316 315 315 315 316 314 315 315 317
314 314 314 314 315 314 314 313 314 313 313 312 313 313 314 315 314 315 316 315 315 315 314 311 309 309 308 308 307 305 302 295 294 296 298 300 302 307 316 315 315 316 318 317 318 320 319 319 319 319 321 322 323 322 325 323 323 322 321 319 317 317 318 319 320 321 320 320 320 319 318 317 316 315 314 315 316 316 316 315 316 316 317 320 322
312 313 313 314 313 314 313 313 313 312 313 312 312 313 314 313 313 314 314 315 316 314 312 310 308 307 307 307 306 305 304 293 294 295 297 299 305 316 317 316 317 317 317 318 320 318 319 319 320 319 319 316 307 295 309 323 322 321 318 316 314 312 310 303 298 302 314 317 316 314 310 306 301 307 307 308 314 317 317 317 316 314 313 310 308
311 312 313 313 313 313 313 311 312 312 311 311 311 313 313 311 312 314 313 315 314 312 310 308 307 308 307 307 306 305 304 296 293 293 295 296 307 316 317 318 317 316 315 316 316 317 318 319 319 317 316 314 301 296 299 311 321 319 317 316 314 312 309 308 299 296 296 295 295 294 294 294 295 295 295 295 303 309 315 311 306 310 308 304 306
311 312 312 312 313 313 312 311 311 312 311 311 310 311 312 312 312 313 313 313 312 310 309 308 308 307 306 306 306 304 303 299 293 293 294 295 306 317 318 316 314 314 314 315 314 312 312 312 317 318 316 312 294 296 297 313 320 319 317 315 313 311 310 310 309 306 296 296 295 295 295 295 294 295 295 296 297 303 309 304 306 306 305 305 303
311 311 312 312 312 312 312 312 311 311 311 312 312 310 310 311 311 313 314 314 311 309 309 307 307 306 306 306 307 306 304 301 294 292 293 293 304 314 314 313 312 312 313 313 313 312 311 309 304 308 313 303 292 296 295 309 319 318 317 316 314 313 313 313 311 309 309 309 310 310 308 303 312 308 305 297 298 303 307 306 306 305 303 303 304
311 311 312 314 312 311 311 311 311 312 311 311 311 311 311 311 311 311 312 312 311 310 308 307 306 305 306 307 306 305 304 301 298 291 293 294 294 310 314 312 311 311 312 311 313 313 313 312 306 292 292 292 294 294 295 296 316 317 316 314 313 311 314 314 314 313 312 311 311 311 310 309 308 307 308 307 307 306 307 308 307 306 305 303 304
312 311 313 313 314 311 310 310 312 312 312 311 311 311 311 311 311 312 311 311 311 309 307 307 306 306 306 306 306 305 305 303 299 291 293 293 292 298 314 312 312 312 312 312 313 314 314 313 312 295 292 293 294 294 296 296 303 317 316 316 315 312 310 312 310 309 311 310 309 308 307 306 307 307 305 306 306 307 307 307 307 306 305 304 302
312 311 312 312 312 312 310 310 312 312 311 311 310 310 311 312 312 312 311 310 308 307 306 306 307 306 307 306 306 304 303 302 303 294 291 293 293 293 311 315 313 314 312 313 313 314 314 313 312 299 292 293 294 295 296 297 300 314 310 296 295 298 312 312 311 310 308 307 305 304 305 305 304 305 305 305 304 306 306 305 306 306 306 306 303
311 312 312 311 311 311 312 310 311 310 310 311 310 311 311 312 312 312 311 308 306 305 305 306 306 305 305 306 306 305 304 302 295 299 293 291 292 294 294 307 298 318 315 313 313 313 314 312 307 296 293 293 294 295 296 297 302 304 293 295 297 295 303 308 306 306 305 305 306 305 305 305 305 303 303 303 305 307 306 307 307 307 306 307 305
311 311 312 311 311 310 311 311 311 311 311 310 310 311 311 311 311 311 310 307 304 303 303 304 304 303 303 304 305 305 305 304 298 293 296 291 292 292 293 293 298 314 315 314 313 312 312 311 304 292 293 293 293 293 294 298 302 292 294 294 294 297 305 305 305 307 305 304 304 304 304 303 304 302 303 305 305 306 307 307 307 307 306 306 307
311 311 311 311 310 310 310 311 310 311 311 310 309 309 311 311 310 310 309 306 303 301 301 303 303 302 302 302 304 305 306 305 304 296 292 293 291 292 293 293 294 299 313 314 314 312 299 292 291 292 292 292 293 294 295 294 292 292 294 294 302 307 307 307 307 307 305 304 303 304 303 303 303 304 307 308 307 306 306 306 307 306 305 305 306
310 310 310 309 309 309 309 310 310 310 310 310 310 309 309 310 309 310 308 306 305 303 303 303 303 303 301 302 303 305 306 306 306 305 303 301 298 291 292 294 297 297 301 302 294 292 292 292 291 291 293 298 308 306 304 305 294 294 292 295 311 307 306 306 306 304 303 302 302 302 302 303 304 307 308 308 306 303 304 303 303 302 304 302 302
310 310 309 309 310 310 310 309 309 309 310 310 310 310 309 309 310 309 308 307 305 304 305 306 306 305 302 301 303 304 306 306 306 306 307 307 306 305 306 305 299 299 304 305 301 302 300 302 301 296 296 294 298 298 299 297 301 303 307 307 307 306 306 306 306 305 305 303 303 303 304 306 306 306 305 304 304 304 304 302 302 301 302 302 300
310 309 310 309 310 309 309 303 306 308 309 310 310 309 309 308 307 309 309 309 307 306 307 306 306 306 303 301 303 305 305 307 307 307 307 307 307 308 309 309 309 309 307 308 308 307 307 298 300 307 303 301 301 304 305 307 306 305 307 305 305 305 306 305 307 306 306 306 305 305 305 306 304 304 304 304 303 304 305 303 302 302 301 301 299
309 309 309 308 308 309 309 309 308 308 309 310 310 310 308 308 307 309 312 312 311 310 309 308 307 308 304 301 302 304 305 306 308 300 311 296 308 308 308 309 310 309 307 299 308 307 306 305 304 303 304 305 304 306 306 305 305 306 307 307 306 306 307 306 306 305 306 305 304 304 305 304 304 304 304 303 303 303 305 302 304 302 302 301 298
309 307 307 307 308 308 309 308 308 308 308 308 309 310 293 292 302 308 309 299 292 292 296 309 312 309 305 304 306 305 306 308 293 292 294 293 290 291 293 294 298 305 299 296 304 306 307 307 306 306 306 306 305 305 304 305 305 305 305 301 304 305 304 305 305 305 306 304 304 304 304 304 304 303 302 302 302 303 303 298 302 303 300 298 297
307 306 306 305 303 307 307 309 309 309 309 308 308 305 306 305 289 287 293 298 296 294 292 291 294 296 305 305 303 291 292 292 293 292 290 291 291 292 293 294 294 293 294 306 308 307 306 305 306 305 304 305 305 304 305 305 306 306 305 304 307 303 302 305 305 303 303 304 304 305 304 303 303 304 303 302 302 302 303 302 302 302 299 298 297
307 306 306 305 304 306 308 309 309 309 308 308 308 304 304 301 301 294 290 293 292 292 292 291 292 296 294 299 304 303 295 292 292 292 292 291 292 291 291 291 292 293 293 292 302 305 306 305 304 305 305 304 304 304 304 305 305 305 305 305 305 304 305 306 305 306 304 304 304 302 303 304 304 303 303 302 299 301 301 301 301 300 299 298 297
309 308 307 306 305 304 306 309 308 309 309 308 309 306 304 301 300 300 302 291 290 291 292 292 292 293 293 295 296 297 296 295 292 292 292 292 291 291 290 290 292 291 293 302 305 304 306 306 305 305 305 304 305 305 305 305 305 305 305 306 305 305 306 308 307 305 304 304 306 305 305 303 302 302 299 301 303 302 302 301 300 300 299 297 295
310 308 307 306 306 305 306 309 308 308 308 307 308 307 304 304 302 300 299 301 302 298 293 291 291 292 292 292 293 294 293 292 292 292 291 291 291 290 292 297 291 289 295 305 306 305 305 305 305 305 305 306 306 306 306 306 305 306 305 307 306 307 307 309 307 305 306 304 304 303 304 305 302 304 304 302 302 301 301 299 301 299 298 297 295
310 302 295 300 307 306 306 308 308 307 308 307 306 306 307 305 305 301 300 299 299 298 299 301 295 292 299 295 292 292 293 292 292 292 292 291 291 291 293 301 300 301 301 304 306 306 306 306 305 305 306 306 305 303 306 307 306 307 307 307 307 307 306 307 306 307 305 305 305 306 303 305 305 303 301 301 301 301 300 300 300 298 297 296 295
310 309 308 305 306 306 306 308 308 308 308 307 308 306 305 305 304 302 300 297 301 300 300 302 303 296 292 296 293 292 292 292 292 292 292 291 291 292 302 303 303 303 303 304 305 305 305 306 308 308 308 308 308 308 308 308 308 306 308 308 305 306 307 306 305 306 307 306 305 303 303 304 305 302 303 303 301 300 299 300 299 297 296 295 294
310 309 308 307 307 307 307 308 308 308 302 307 303 308 307 308 307 307 305 303 303 302 304 304 305 305 297 302 297 292 291 292 291 292 291 292 290 297 304 305 306 307 307 307 308 308 307 308 308 308 309 309 308 309 307 307 308 308 304 307 307 306 306 307 306 303 305 305 305 305 305 305 305 305 303 299 298 299 299 298 298 296 296 292 289
311 309 309 309 308 308 308 307 306 299 306 307 308 307 305 307 307 304 306 304 303 303 304 304 301 303 301 303 303 302 297 291 291 292 292 292 293 301 304 306 307 308 308 308 309 309 308 309 309 309 309 309 308 308 308 308 308 308 307 308 307 306 301 303 300 305 305 304 305 305 302 304 304 304 299 298 296 295 296 296 296 297 294 293 291
311 302 297 296 298 308 307 307 306 307 306 307 306 305 303 305 305 305 305 305 303 303 303 305 305 304 303 305 306 304 298 301 301 302 302 302 303 304 305 306 307 307 307 308 307 306 308 308 308 308 308 308 307 309 308 307 308 307 308 307 307 307 306 306 306 305 304 304 301 303 302 301 302 301 298 296 296 296 297 296 296 295 293 291 292
309 311 302 294 301 304 305 308 307 306 303 304 305 305 304 305 305 305 305 305 304 303 303 305 304 305 305 306 304 306 302 302 302 304 305 304 305 306 306 307 307 307 308 309 309 309 308 309 309 309 309 308 308 308 308 308 308 307 307 307 305 304 305 306 304 303 302 299 302 302 301 300 298 298 296 297 296 297 296 293 292 292 292 292 291
310 309 302 298 300 305 302 306 305 306 306 305 305 305 305 304 305 303 305 304 305 303 302 304 305 306 306 304 298 300 305 304 305 305 306 306 306 307 307 308 308 308 309 307 308 308 310 309 309 309 309 308 308 308 307 307 306 306 307 304 304 301 303 304 304 303 303 300 301 299 299 297 297 296 295 295 293 293 293 293 292 292 291 291 291
310 309 308 306 300 306 305 304 305 304 305 307 306 306 306 303 304 306 304 304 303 304 303 303 305 306 301 295 296 296 304 306 308 306 308 308 308 309 308 308 309 309 309 310 310 310 310 310 309 309 308 308 307 306 306 306 306 305 305 305 304 302 300 300 302 302 300 300 298 298 297 296 295 294 294 292 293 293 293 293 292 291 291 290 290
311 311 310 306 307 305 305 306 306 307 305 306 305 300 302 304 304 303 304 305 304 303 303 303 304 306 304 294 295 292 305 306 300 306 307 307 308 308 308 309 309 310 310 311 311 311 310 310 309 309 308 308 308 307 306 305 306 306 304 304 303 303 302 300 300 300 299 297 296 294 294 294 294 295 294 293 292 292 292 291 290 290 290 290 289
310 310 308 308 307 306 305 307 306 306 306 302 302 305 303 304 304 304 304 304 305 304 304 304 303 304 306 300 298 301 305 305 306 308 308 307 308 308 309 310 310 310 311 310 311 311 311 310 309 309 309 309 309 308 306 306 306 305 303 303 300 299 301 299 296 298 297 297 295 293 294 293 292 293 292 291 292 291 290 290 289 289 289 289 288
313 310 309 309 309 308 307 307 306 306 304 305 305 306 303 305 305 303 303 304 305 304 304 304 304 303 303 306 305 304 305 305 304 307 307 308 308 309 309 310 310 310 310 310 311 313 311 310 310 309 309 308 308 308 306 306 306 305 304 303 300 296 299 300 300 300 296 296 295 295 294 294 293 293 292 292 291 290 290 289 289 287 287 287 287
311 310 309 309 308 307 307 308 305 308 307 306 306 306 305 305 305 305 303 303 304 304 304 304 304 305 305 305 307 304 305 306 306 307 308 309 308 309 309 310 310 311 311 311 311 312 310 309 309 308 307 307 306 306 305 305 304 304 304 304 303 302 302 301 301 299 297 297 295 294 294 292 292 291 289 290 289 289 289 288 288 288 287 286 286
313 311 309 309 309 307 307 310 308 307 308 307 306 306 306 306 305 304 301 303 302 301 304 305 305 305 305 305 306 306 305 305 306 307 308 308 309 309 310 311 311 312 311 311 311 310 309 309 308 308 307 306 306 305 304 303 303 302 302 302 302 301 300 300 299 299 298 297 296 294 292 292 291 290 290 289 289 289 288 288 287 286 286 286 286
312 311 310 309 309 309 309 309 308 300 308 306 306 307 305 306 306 304 306 304 302 302 303 304 305 305 305 305 306 307 306 307 306 308 308 309 309 309 310 311 311 311 312 311 310 309 310 308 308 308 306 305 303 303 303 302 302 301 301 300 298 296 293 292 299 297 297 296 296 295 293 292 291 291 290 289 288 288 287 287 287 287 287 286 286
311 311 311 310 309 309 309 308 306 308 308 309 306 306 307 306 305 306 305 305 304 302 303 304 305 306 305 305 305 305 306 305 307 307 307 308 309 310 310 312 311 310 309 309 309 309 308 307 308 306 305 304 303 302 302 301 300 300 297 293 287 282 284 285 291 292 289 293 294 294 294 292 291 290 289 288 287 287 287 287 286 286 286 286 285
312 310 310 311 309 309 309 309 310 310 308 308 309 308 306 307 306 306 306 306 305 304 304 303 304 305 306 305 305 305 306 305 306 307 308 308 309 310 311 312 311 310 309 309 308 307 307 307 307 306 304 304 303 302 301 300 299 296 293 287 280 281 281 280 279 279 287 294 293 293 292 291 291 290 290 289 289 288 287 286 286 285 285 285 285
309 311 310 310 310 309 310 310 311 311 310 310 309 309 308 308 307 307 306 307 306 305 303 304 305 305 305 306 303 304 304 306 307 308 308 309 310 311 310 310 308 308 308 308 308 306 306 306 305 304 303 299 301 300 300 298 296 291 283 279 280 280 280 283 285 279 275 282 291 291 290 289 288 288 288 288 288 287 286 285 285 284 284 284 284
Wind_Speed
5 4 4 4 5 6 5 5 6 5 6 5 6 7 8 8 8 8 8 10 10 11 12 13 13 13 14 14 14 13 14 14 12 12 11 10 12 12 12 12 12 11 11 11 10 10 10 10 9 8 7 6 5 5 5 5 5 5 5 5 5 5 6 5 6 6 5 1 3 3 2 3 4 2 3 3 4 5 2 3 3 4 4 1 7
3 4 4 4 5 5 6 6 5 5 6 6 6 7 8 7 7 8 9 9 10 11 12 11 13 14 15 15 15 14 14 15 13 12 12 16 15 12 11 12 11 12 11 11 11 9 9 10 10 9 7 7 6 6 6 6 6 6 5 5 5 5 4 5 5 5 6 4 3 3 3 3 4 3 3 4 5 5 5 4 4 3 4 5 5
4 4 4 5 5 5 5 6 5 5 5 5 6 7 7 8 7 8 8 8 10 10 10 12 13 14 14 12 14 15 14 12 9 9 12 13 11 10 12 11 12 12 12 11 11 10 10 8 8 7 6 7 7 7 6 6 6 6 5 4 5 5 4 4 5 5 5 5 3 4 2 2 3 3 4 4 4 5 6 5 6 5 3 5 5
4 4 4 5 5 5 5 5 6 5 5 4 5 6 6 6 7 8 9 8 9 9 10 11 12 13 13 13 13 13 13 10 9 14 16 13 12 12 12 11 11 11 12 11 11 10 9 8 7 7 7 7 7 7 7 6 6 5 5 5 5 5 4 4 5 5 5 5 3 5 2 3 2 2 2 2 2 4 5 5 6 5 5 6 5
4 4 4 5 5 5 5 5 6 5 4 4 5 5 5 5 5 7 7 9 9 8 9 9 11 11 10 12 13 14 15 12 10 13 10 10 10 10 12 13 11 11 11 11 10 10 8 7 7 7 7 7 8 8 7 7 6 6 5 5 4 3 3 4 4 5 5 5 4 2 3 2 2 3 3 3 4 5 3 4 5 5 5 6 6
4 5 5 5 5 6 5 5 6 5 4 4 5 5 5 5 6 6 6 7 8 8 8 7 8 10 11 12 14 13 14 11 12 14 13 10 10 11 12 11 11 11 10 10 9 8 7 8 7 7 8 9 8 7 7 8 7 6 5 4 3 3 4 5 4 4 4 4 4 3 2 3 1 2 4 4 5 6 5 5 5 3 4 6 5
5 5 5 6 6 5 5 5 5 5 3 3 4 4 3 4 5 5 5 6 7 8 8 7 7 10 11 11 11 12 12 11 10 12 12 9 9 10 10 10 9 9 9 9 8 8 8 8 8 7 8 8 8 7 7 7 6 6 5 4 4 4 5 4 4 4 4 4 4 3 3 1 2 3 4 4 5 6 6 6 6 5 5 6 5
5 5 5 5 5 4 4 4 3 3 2 2 2 3 3 3 4 5 5 6 6 6 7 8 8 7 9 9 9 12 13 10 10 10 7 7 8 6 5 6 8 8 10 9 9 9 9 8 9 7 4 2 3 4 5 6 5 5 5 5 5 5 5 4 4 3 3 4 4 4 3 3 2 3 3 5 6 6 6 6 6 5 6 4 2
5 5 4 5 4 3 2 2 1 1 2 2 1 2 2 3 4 5 5 5 5 6 5 5 6 6 7 7 6 6 8 7 7 10 9 9 9 7 9 9 8 6 6 9 9 8 7 6 3 8 8 9 11 10 9 8 3 4 5 4 3 4 4 3 2 3 3 3 4 4 4 4 4 5 5 5 6 7 7 5 5 5 5 6 3
5 5 5 4 3 3 2 1 1 2 2 3 2 3 3 3 3 3 5 5 5 5 5 3 3 4 4 1 2 3 3 2 2 7 7 7 10 8 7 5 6 9 5 4 7 7 6 8 8 14 13 14 13 11 11 11 11 9 5 2 1 2 3 4 4 4 4 4 4 4 4 5 4 6 5 5 6 6 5 5 5 5 4 5 3
5 5 5 3 3 3 2 2 2 3 3 3 3 4 3 3 4 3 4 5 6 5 4 4 4 7 7 6 7 6 5 5 7 8 11 6 7 6 6 5 5 6 12 12 9 8 9 7 8 10 12 11 10 11 10 11 12 12 13 12 10 6 3 4 4 3 5 5 4 3 3 4 6 4 4 6 5 5 5 5 5 5 5 5 4
5 5 5 3 4 4 3 3 4 3 4 4 4 3 3 3 3 3 2 3 4 3 4 6 7 8 8 9 10 8 8 11 8 10 11 10 7 7 6 6 5 4 2 4 5 10 9 8 7 5 5 9 9 9 10 11 13 13 13 12 12 12 11 7 4 3 2 5 2 2 3 2 2 3 5 5 5 5 5 5 5 6 5 5 4
4 5 4 4 4 3 4 4 4 3 3 4 3 4 3 3 2 2 2 2 2 3 2 5 7 9 10 10 10 9 7 12 11 12 14 13 13 10 8 8 7 7 6 5 7 8 8 7 7 6 6 10 9 9 10 9 10 14 14 14 14 14 13 14 13 10 2 1 2 3 5 5 4 4 4 5 6 5 6 4 6 5 5 4 4
4 5 5 5 4 4 5 4 4 3 3 4 4 4 3 2 2 2 1 1 1 1 3 3 6 9 10 9 8 8 8 11 11 11 13 15 15 12 9 10 9 7 5 3 3 6 7 7 7 6 6 6 7 9 9 10 9 8 7 8 9 9 10 11 11 13 10 5 3 4 5 5 5 4 4 5 6 6 6 5 6 6 5 5 3
5 5 5 5 4 4 5 4 4 4 3 3 4 4 2 1 1 1 0 1 1 1 2 2 6 8 9 7 7 7 6 11 10 12 14 14 14 10 8 8 6 8 5 4 4 5 6 6 6 7 6 5 3 3 6 6 6 6 8 9 9 9 9 8 7 6 7 7 7 7 6 6 6 6 6 6 5 4 4 4 5 6 7 9 6
6 5 5 5 5 4 4 3 4 4 4 3 4 2 1 1 1 0 1 2 3 3 2 3 4 8 7 6 6 4 5 12 12 14 12 10 9 7 7 7 7 6 5 6 6 6 5 5 6 6 6 6 3 6 7 3 8 8 9 10 10 10 10 8 11 13 11 9 8 8 8 8 8 7 7 6 6 5 6 4 2 5 6 4 3
7 5 5 5 4 4 3 4 4 5 4 3 2 1 0 1 0 1 2 2 3 4 2 3 3 7 8 7 6 5 6 11 13 11 9 10 3 5 7 6 6 6 7 7 6 5 4 4 6 5 6 6 4 5 5 4 9 8 9 9 9 9 9 8 11 13 15 15 14 13 11 10 9 8 8 9 8 8 6 2 4 5 4 4 2
7 6 6 5 4 3 3 4 4 4 3 1 1 1 1 0 1 1 2 3 4 4 3 3 5 6 8 8 5 5 6 9 11 10 10 10 7 4 5 7 7 5 6 5 6 5 6 12 6 7 7 6 4 3 5 5 7 8 9 10 10 9 8 7 7 7 10 10 10 10 9 9 8 8 8 10 12 11 6 5 5 5 3 3 4
7 7 6 5 2 1 3 4 3 3 2 0 0 0 1 1 1 2 2 4 4 4 4 3 5 6 7 8 10 8 6 7 10 10 10 9 7 3 5 7 6 6 6 6 6 5 5 8 13 11 8 6 4 3 6 6 7 7 8 8 8 8 7 7 7 8 8 8 7 6 6 6 5 4 5 1 5 6 5 5 5 4 4 4 4
8 6 5 3 4 1 2 3 3 2 1 0 0 1 1 2 3 3 3 3 4 4 4 4 5 6 6 7 6 6 6 6 8 10 9 10 9 5 5 5 7 7 7 8 7 6 7 6 7 9 8 6 5 5 6 11 5 7 6 6 7 8 7 6 5 5 6 5 6 5 5 5 5 4 3 3 3 5 5 5 5 5 4 5 4
7 6 5 4 5 4 1 3 1 2 2 1 1 1 2 3 3 4 4 3 4 4 5 4 5 6 6 6 7 7 6 6 7 10 9 10 10 10 5 6 7 7 8 8 8 8 7 6 6 6 5 7 7 8 9 11 9 6 6 7 7 8 5 7 6 5 6 6 6 5 5 4 3 3 3 3 4 3 3 4 4 4 5 5 5
7 6 6 6 5 5 3 1 2 3 2 2 2 3 2 2 3 4 4 5 5 6 5 4 4 5 5 6 6 6 7 10 6 8 9 9 9 12 1 5 2 8 8 8 8 8 8 7 6 5 6 9 10 11 12 12 12 9 10 11 9 3 4 7 6 6 5 5 4 4 4 3 3 3 3 4 4 3 3 3 3 4 4 4 4
7 7 6 6 4 4 4 4 4 3 3 3 2 3 3 3 3 3 5 6 6 5 5 4 4 5 4 5 5 5 5 6 10 7 9 9 9 9 11 6 10 3 8 9 9 9 8 8 8 6 8 10 11 11 11 11 10 8 8 7 5 0 4 4 5 4 5 5 4 4 3 3 3 3 4 4 4 4 3 3 3 4 3 3 2
7 6 5 5 5 4 5 6 5 4 4 3 3 3 4 4 3 4 5 6 5 5 3 4 4 4 4 4 4 4 4 5 7 9 7 8 8 9 8 9 10 7 9 9 9 9 10 9 8 7 9 10 10 10 10 9 8 7 7 5 2 6 2 6 4 5 5 5 5 4 4 4 4 3 4 4 3 4 3 2 3 3 4 4 3
6 6 6 6 6 6 5 5 5 5 4 4 3 4 4 4 4 5 6 6 6 5 4 3 3 3 4 4 4 4 4 4 4 6 6 8 9 8 9 11 12 7 9 9 8 8 12 13 10 9 10 11 12 11 10 9 7 5 2 4 6 3 4 4 5 4 5 4 5 5 4 4 4 4 3 1 2 3 4 3 2 3 5 5 4
7 7 7 6 6 6 6 5 6 5 5 4 4 3 4 5 5 6 7 6 6 6 6 5 4 4 3 4 4 5 4 4 4 4 4 5 6 9 11 11 14 16 14 11 14 15 13 10 10 11 11 9 7 7 7 6 4 3 5 8 5 5 4 5 5 5 5 5 4 4 4 3 3 2 1 0 3 5 5 5 5 5 6 5 5
7 7 6 6 6 6 6 6 6 6 6 5 4 4 4 5 5 6 7 6 6 6 6 6 5 4 4 4 5 5 5 5 5 4 4 4 5 4 6 8 10 12 10 9 10 8 9 7 6 7 10 11 11 10 9 7 6 6 4 3 6 4 5 4 5 4 4 4 4 3 3 2 2 2 1 2 2 2 5 5 5 6 6 6 5
7 7 7 6 6 6 6 6 2 5 6 5 5 4 4 4 5 7 7 7 7 7 6 6 5 4 4 5 5 5 5 6 6 6 5 6 6 6 7 8 8 7 8 8 8 9 8 7 7 7 7 7 7 7 6 5 5 5 5 5 6 6 7 5 3 4 3 3 3 2 2 2 2 1 1 2 4 2 3 5 5 5 6 6 6
7 6 6 6 6 6 6 7 7 6 6 5 4 4 5 5 6 5 6 6 5 7 8 5 4 4 5 5 5 6 5 7 6 5 4 6 2 7 8 7 6 6 7 9 9 8 8 7 7 7 7 7 7 6 6 5 5 5 5 6 6 6 6 5 4 3 3 2 2 1 2 1 2 1 1 2 4 4 3 5 4 5 6 6 6
7 6 6 6 6 6 7 6 7 7 6 5 5 5 9 9 6 2 6 6 8 9 7 2 1 4 4 5 2 4 6 5 10 10 7 6 6 8 8 9 8 8 10 8 6 8 7 7 7 7 7 6 6 6 6 6 6 6 5 2 3 3 3 3 3 3 2 1 1 1 2 1 1 2 2 3 4 4 3 5 5 5 6 6 7
7 6 6 6 6 6 7 6 7 7 6 5 4 5 6 6 7 8 9 7 7 7 7 7 9 10 5 4 5 10 14 14 12 9 7 6 7 7 7 7 9 10 8 7 6 6 6 6 6 5 5 5 5 5 4 4 4 4 5 4 3 4 2 2 2 1 2 2 0 0 1 1 1 1 4 3 4 4 4 5 5 5 6 7 7
7 6 6 6 6 7 7 6 7 7 6 5 5 5 5 6 6 7 7 7 5 5 4 5 4 2 5 5 6 5 8 11 10 8 6 5 5 6 6 6 6 7 7 5 2 4 5 5 5 5 4 4 4 4 3 3 3 3 3 3 3 3 3 3 2 2 2 2 3 1 2 2 2 2 3 2 3 4 5 5 5 6 6 7 7
7 7 6 6 6 8 7 7 7 7 6 6 5 5 5 5 5 6 5 7 6 4 3 3 2 1 3 3 6 6 8 8 9 7 6 5 5 4 5 4 3 2 0 4 3 3 3 4 4 4 4 4 4 4 3 3 3 2 2 2 3 3 4 2 4 4 4 3 3 3 3 2 2 2 3 3 4 5 5 5 5 6 6 7 8
8 7 7 7 7 7 8 7 7 7 6 7 6 6 6 5 5 6 7 6 5 3 2 1 0 2 1 2 6 10 10 9 8 7 7 7 6 6 5 3 3 2 4 5 4 4 3 3 3 4 4 3 3 4 4 3 3 3 3 3 3 3 3 2 4 5 5 4 5 4 3 3 2 3 4 4 4 4 5 5 6 6 7 8 8
8 6 6 7 7 7 8 7 7 7 7 7 7 7 6 6 6 7 7 8 8 8 8 6 5 6 5 5 2 6 10 10 10 9 8 8 8 7 5 5 4 5 5 8 7 5 5 4 4 4 4 4 4 3 4 4 4 4 4 4 4 4 4 4 5 5 5 5 5 5 3 3 3 3 5 5 4 5 5 5 6 6 7 8 8
9 8 9 9 8 7 8 8 7 8 7 7 7 7 6 6 7 7 7 6 8 9 9 9 9 9 8 5 10 8 9 10 10 10 9 9 10 9 7 8 8 8 8 8 7 5 4 4 4 4 4 4 3 4 3 4 4 4 4 4 4 4 4 5 5 5 5 6 6 6 4 4 4 4 4 4 4 5 6 6 6 7 7 7 8
9 9 8 9 9 7 8 8 8 8 7 7 6 7 7 7 7 7 7 8 9 9 10 10 10 8 5 6 7 7 8 8 8 8 8 8 9 8 8 8 8 8 8 8 7 6 5 5 4 3 3 3 3 3 3 3 4 4 4 5 5 5 5 4 4 4 5 6 6 5 5 5 5 5 4 3 3 5 5 6 7 6 7 7 7
10 9 9 9 9 8 8 8 9 8 8 8 8 8 8 8 8 8 8 8 9 9 10 11 12 11 12 10 12 8 6 5 6 4 4 3 5 8 10 10 9 7 5 5 5 5 5 3 3 3 3 3 3 3 4 4 4 4 4 4 5 3 4 2 4 6 6 7 6 5 3 4 4 3 1 2 2 3 4 5 6 7 6 7 7
10 9 7 11 10 9 8 9 9 10 9 9 8 8 8 8 8 8 8 8 9 9 10 10 11 11 12 11 10 9 10 7 8 9 9 9 9 9 10 10 9 7 6 6 5 4 4 4 3 2 3 3 3 3 4 4 4 4 3 4 4 3 4 5 4 5 4 5 3 4 2 2 2 1 1 2 3 4 5 4 6 7 8 6 7
10 10 8 10 7 9 8 9 9 10 10 10 9 9 9 9 9 9 9 9 9 10 10 9 10 11 12 12 12 11 11 11 11 11 11 11 11 11 11 10 9 8 7 7 6 6 5 5 4 4 3 3 3 3 3 3 4 3 3 4 4 3 4 5 5 3 3 2 2 1 1 1 1 1 2 2 3 4 5 4 4 5 6 7 7
10 10 10 11 11 9 8 8 9 9 10 10 9 9 9 10 9 9 9 9 9 10 10 10 10 11 12 11 15 15 12 12 11 11 10 10 10 11 10 9 9 8 8 8 7 6 6 6 4 4 3 3 3 3 3 3 3 3 4 3 4 3 4 4 4 3 1 0 1 1 1 1 1 2 2 1 1 3 4 3 4 4 4 5 6
11 10 9 9 8 10 10 10 9 10 9 10 10 9 10 10 10 10 10 10 10 9 10 10 10 10 10 14 13 15 12 10 10 10 11 11 11 11 10 10 10 9 8 8 7 6 6 6 5 4 3 3 3 3 3 3 4 4 4 3 3 3 2 2 1 1 1 1 1 1 1 0 0 1 2 3 3 3 3 3 4 4 5 5 5
11 10 10 10 11 11 11 10 10 10 10 10 9 9 9 9 10 10 10 10 10 10 10 10 10 11 9 13 12 11 11 11 10 11 11 10 10 10 10 10 9 8 8 7 6 6 5 5 5 5 4 4 3 3 3 3 2 3 3 3 3 2 2 1 2 2 2 1 2 2 1 1 2 3 2 2 2 3 3 4 4 4 4 5 5
10 10 10 10 10 11 11 10 10 10 10 10 10 9 9 9 9 9 10 10 10 10 10 10 10 11 9 9 9 9 11 12 11 11 11 10 9 10 10 9 9 8 7 6 5 5 5 5 6 5 4 4 3 3 3 2 2 3 3 3 1 1 1 2 2 2 1 1 2 2 2 2 1 2 3 2 2 3 4 4 4 5 4 5 6
10 11 10 10 10 10 11 11 11 11 11 10 10 10 10 10 9 9 10 10 11 11 10 10 10 11 11 11 12 12 12 12 12 11 11 11 11 10 9 9 8 8 7 6 5 6 6 6 6 6 6 5 5 4 4 3 2 2 2 2 2 2 2 3 2 2 1 1 1 1 1 2 1 2 3 2 2 3 4 4 4 5 6 6 6
11 11 11 11 11 11 11 11 12 11 11 11 11 11 11 11 10 10 10 10 10 10 11 10 10 11 11 11 11 12 13 13 13 12 11 10 10 10 9 9 8 7 7 6 6 7 7 7 7 7 7 6 6 5 5 4 3 3 3 2 3 3 3 3 3 3 2 1 0 1 1 2 2 2 1 3 4 4 4 4 5 5 5 6 7
11 11 11 11 11 11 11 11 11 11 12 11 11 11 11 11 11 11 11 11 10 11 11 11 11 11 11 11 11 12 12 13 13 12 12 11 10 10 9 8 7 7 6 7 7 8 8 8 7 7 7 7 7 7 6 5 5 5 4 4 4 4 4 4 4 3 2 1 0 1 1 2 2 3 2 2 3 4 4 5 5 6 6 6 6
10 11 11 11 11 11 11 11 11 11 11 11 12 12 12 11 11 11 11 11 11 11 12 11 11 11 11 11 11 11 11 12 12 12 11 11 11 10 9 8 7 7 7 8 8 8 8 8 8 8 8 8 8 7 7 6 5 5 5 4 4 5 7 5 3 3 2 1 1 1 2 2 2 2 3 3 4 4 5 6 5 5 5 6 6
11 11 11 11 11 12 11 12 11 11 12 11 11 12 12 12 12 11 11 11 11 12 12 12 12 12 11 11 11 12 11 11 12 12 12 11 11 9 8 8 8 8 8 8 9 9 9 8 8 8 8 8 8 7 7 7 6 6 6 6 7 9 9 10 6 5 4 1 2 2 3 4 4 3 3 4 5 5 5 5 5 6 6 6 7
12 12 12 12 11 12 11 11 11 11 11 12 12 12 12 12 12 12 12 12 11 12 12 13 13 12 12 11 11 11 12 12 12 12 12 12 10 9 8 7 8 8 8 9 9 9 9 8 9 8 8 8 8 7 7 7 7 7 7 8 9 9 9 9 9 6 3 1 1 2 3 4 5 4 4 5 5 5 5 5 5 5 6 7 8
11 11 11 12 11 11 11 11 11 11 11 12 12 12 12 13 13 13 12 12 12 12 12 12 13 13 12 12 12 12 12 12 12 12 12 11 9 8 7 7 8 8 8 9 9 9 9 9 8 8 8 6 8 8 7 7 6 7 11 13 10 10 7 4 5 5 5 5 3 3 2 3 3 4 4 4 4 5 4 6 6 7 7 7 8
Wind_Direction
270 272 276 280 294 302 306 310 308 310 307 288 266 258 249 244 248 250 250 248 247 247 246 243 241 237 234 230 224 219 222 218 215 209 208 211 221 224 216 215 222 224 224 219 217 222 223 224 220 212 207 213 221 221 222 221 209 222 232 240 245 242 246 257 267 279 278 234 273 297 292 290 274 321 341 353 349 332 311 4 357 351 359 356 114
262 267 273 282 291 302 307 309 309 317 314 302 287 277 269 261 249 244 242 247 248 250 250 248 241 236 233 229 224 223 224 220 214 212 209 215 214 223 217 216 221 222 220 221 215 217 220 223 222 216 202 211 218 221 212 209 213 220 223 228 242 247 247 261 261 276 290 294 282 261 268 225 279 343 358 16 357 329 331 6 344 353 4 346 328
273 270 276 283 287 293 296 301 311 314 307 304 299 297 298 295 282 265 254 253 249 246 247 247 247 241 234 233 229 226 225 224 221 220 218 213 204 210 220 219 220 220 218 218 217 213 216 217 226 223 202 211 218 227 224 217 213 222 225 222 235 250 248 241 271 274 282 288 288 279 293 315 320 333 16 23 3 326 321 2 345 334 3 340 329
253 253 266 272 284 289 290 296 301 309 312 310 302 303 303 299 294 285 273 257 250 244 244 246 246 244 241 234 228 221 222 226 223 218 214 211 203 207 214 215 216 218 217 211 210 211 211 214 219 220 207 214 221 220 219 220 221 228 217 221 232 243 238 240 242 274 278 284 298 305 356 331 316 11 48 35 315 326 330 352 323 321 346 334 332
272 270 265 269 274 283 290 292 292 296 301 304 308 308 306 302 294 291 286 284 279 266 254 247 244 242 242 237 231 226 222 221 222 232 226 211 201 213 221 217 208 212 212 212 212 210 206 212 219 212 204 215 223 222 218 217 219 216 220 221 233 223 231 243 249 251 266 276 291 301 310 301 2 3 8 359 350 329 340 323 327 319 338 350 332
265 276 280 275 275 274 280 278 280 287 303 305 310 311 315 318 318 307 303 291 282 278 283 268 245 240 236 239 237 231 224 221 230 224 222 214 206 204 206 206 205 205 203 205 209 201 201 212 214 210 211 217 225 224 227 221 222 224 219 227 211 216 237 241 244 253 269 275 284 281 272 324 347 30 35 18 343 329 331 336 315 331 349 346 348
266 274 277 279 281 277 270 274 278 278 286 316 304 308 323 334 331 332 323 309 297 285 271 274 283 254 240 236 234 234 221 213 217 220 224 211 208 209 208 207 205 203 200 201 202 199 200 208 213 209 216 219 222 223 225 223 222 216 208 211 217 224 226 233 237 244 256 277 274 286 307 5 340 344 29 353 328 314 340 339 331 351 356 344 348
269 271 274 273 278 281 281 280 279 294 316 302 331 344 352 360 351 352 342 337 330 310 295 279 267 275 256 239 232 231 221 209 210 212 208 191 194 189 202 223 214 214 211 199 199 200 198 199 212 213 229 6 323 247 228 220 205 214 194 204 208 222 235 228 242 263 275 286 297 304 307 315 347 41 326 314 331 330 6 342 328 343 340 329 347
258 268 268 269 274 276 273 286 306 282 283 285 311 335 358 1 355 0 356 357 344 332 315 293 286 275 271 249 233 221 212 202 193 207 203 192 192 191 189 194 196 212 224 206 195 187 184 187 81 68 69 67 52 43 40 18 320 222 183 195 209 235 248 259 276 292 295 295 297 309 310 307 320 332 338 340 337 331 331 333 321 344 333 323 343
256 257 259 259 261 258 252 253 282 296 276 278 303 312 322 335 338 354 1 3 0 345 336 330 330 358 343 255 91 38 1 349 211 193 200 191 184 178 178 181 190 202 160 229 173 162 149 101 80 81 74 68 64 54 44 42 37 29 26 7 320 264 273 284 279 280 284 290 291 307 299 300 1 35 336 331 326 326 326 332 331 343 327 329 309
243 253 256 255 248 242 239 240 265 268 306 302 306 307 325 324 318 333 12 13 8 11 10 30 42 37 30 32 42 45 31 4 353 202 181 187 186 170 146 146 204 164 180 189 150 151 136 120 115 113 106 98 85 72 71 68 62 60 54 48 35 11 299 273 271 293 294 271 273 273 314 334 36 20 339 330 344 325 341 329 340 344 347 342 350
243 237 250 244 239 242 239 242 254 280 287 295 310 326 319 308 320 325 359 29 28 25 54 69 75 67 53 43 42 37 39 8 42 71 97 101 107 134 119 109 102 85 115 102 144 150 149 147 132 125 114 108 111 104 92 87 90 84 77 72 65 56 47 33 349 247 235 276 278 49 292 336 310 15 356 341 350 334 343 327 0 345 347 344 359
237 246 245 238 244 256 259 264 276 276 287 307 313 297 303 307 329 332 37 40 26 348 30 76 70 67 60 61 39 22 26 7 16 62 75 74 77 78 64 65 66 69 74 124 155 147 142 128 119 117 112 131 127 122 117 111 111 111 109 94 73 64 55 46 35 21 343 281 67 62 30 358 340 35 24 345 332 331 337 351 3 341 345 344 15
234 244 243 247 250 254 269 279 287 296 303 305 302 293 292 327 338 323 32 85 42 327 321 53 68 70 65 56 56 26 20 8 8 49 63 71 65 70 75 80 78 56 52 79 110 118 123 123 120 128 141 160 150 146 151 142 141 143 122 97 90 87 79 76 61 41 35 57 74 84 62 43 55 36 16 346 343 348 345 348 348 342 337 354 331
226 234 245 250 254 263 275 279 291 307 308 309 295 293 323 14 286 263 54 49 36 351 331 30 68 64 65 61 61 39 16 11 12 45 57 69 74 77 81 75 83 99 93 74 58 76 93 104 123 134 145 144 96 355 151 145 131 120 104 88 80 68 57 51 41 64 78 77 81 78 68 53 45 32 8 347 344 331 348 311 314 315 299 279 228
232 225 239 244 259 261 276 290 295 303 305 306 288 288 8 25 314 222 152 128 104 91 58 3 68 80 76 66 61 49 20 14 16 34 31 38 69 83 87 92 95 94 101 99 100 91 102 120 132 133 126 121 57 349 350 116 137 127 109 103 94 81 69 48 45 47 47 58 65 68 66 60 45 40 18 354 336 319 282 231 301 311 298 331 22
242 223 240 247 258 273 288 301 307 310 313 297 287 295 212 93 225 223 167 140 117 101 68 7 19 81 81 70 62 42 29 12 18 21 10 358 42 92 101 102 103 108 103 99 81 81 85 117 130 119 116 108 48 352 359 316 137 132 120 114 108 103 96 79 61 70 77 81 84 87 90 85 73 49 20 359 349 321 296 318 7 325 326 340 9
241 236 238 244 248 268 285 294 310 314 299 282 299 330 316 28 132 218 173 144 116 94 88 50 33 60 74 74 67 66 53 32 21 12 359 355 333 111 115 108 113 116 114 104 96 80 49 23 22 117 109 109 55 338 338 280 137 137 130 122 118 112 115 115 110 98 98 97 103 113 119 117 112 91 44 5 354 347 17 30 345 320 343 1 340
242 241 243 242 245 317 305 306 316 305 292 264 222 295 279 179 156 193 153 131 110 105 82 59 56 55 68 76 71 69 66 47 26 10 1 352 344 119 128 138 134 131 144 138 123 109 91 56 35 40 78 88 76 359 339 309 145 139 138 136 126 122 121 133 131 135 140 139 138 147 152 179 189 97 89 117 3 16 30 12 355 353 351 355 342
244 239 243 202 159 190 270 282 295 288 275 45 76 124 132 150 164 180 162 152 135 106 88 76 70 65 65 70 66 67 70 60 34 13 10 349 349 320 145 140 143 149 152 145 135 116 113 101 73 56 70 85 79 32 17 358 128 132 131 125 121 120 134 119 93 99 101 100 103 109 103 108 109 108 102 103 77 50 32 18 8 350 352 340 352
242 243 238 219 182 169 282 290 269 256 249 204 163 191 166 150 160 172 165 146 133 101 93 85 79 76 70 70 71 62 52 66 57 32 14 359 344 341 154 143 150 150 143 143 141 138 128 105 105 65 79 91 81 64 46 29 15 125 107 99 75 76 96 121 113 130 119 122 132 138 136 129 122 113 105 77 55 45 40 33 10 1 347 348 343
230 232 226 225 234 164 175 261 245 242 222 211 184 172 162 157 156 163 157 138 127 112 99 92 84 82 80 74 73 71 59 47 46 56 24 12 360 356 289 121 48 146 141 137 131 129 119 113 111 91 89 89 82 74 62 52 51 73 69 80 71 24 148 122 141 144 140 143 127 122 121 111 97 77 74 67 55 44 29 27 22 359 355 346 345
222 225 224 229 219 213 171 172 227 224 204 216 186 169 167 163 164 152 143 134 121 114 100 102 101 91 88 81 74 64 65 64 32 40 40 18 20 26 21 46 320 180 132 130 124 118 111 104 102 97 95 89 85 81 86 91 88 88 92 89 99 307 257 107 104 112 108 105 101 95 87 89 85 76 60 60 58 29 8 11 344 340 333 320 312
221 218 213 224 211 214 188 177 202 200 193 201 167 170 166 166 181 164 156 138 132 109 103 106 107 108 104 98 90 85 79 78 64 37 37 27 35 33 35 20 357 115 123 125 118 115 119 115 110 114 98 87 74 60 56 65 92 104 95 102 157 269 125 119 125 109 118 116 109 97 85 72 73 69 64 50 30 14 357 341 322 320 325 314 280
202 210 215 222 205 211 197 190 183 199 176 201 185 169 165 188 179 162 161 148 137 126 123 127 122 122 115 113 117 111 90 83 83 74 62 59 42 39 40 36 25 35 116 113 105 88 86 97 113 118 104 99 102 98 85 82 88 91 144 189 243 191 118 109 113 125 112 114 110 106 98 88 78 70 52 33 37 28 12 11 339 348 335 319 287
201 214 222 221 205 203 194 196 197 185 197 195 180 183 177 184 184 162 166 158 151 150 152 153 158 142 146 141 133 123 110 102 102 108 117 84 68 48 50 55 67 58 63 78 84 98 104 109 115 122 130 140 145 120 118 114 115 164 220 242 231 105 123 118 121 115 107 99 97 95 98 94 82 91 172 281 27 27 11 359 347 3 350 350 341
201 210 212 207 196 211 195 199 195 178 199 208 199 175 172 190 164 172 166 162 155 158 160 168 171 165 151 150 140 134 133 122 120 123 123 120 116 125 115 100 99 102 103 111 111 108 129 135 105 77 80 66 73 87 116 142 172 202 190 144 95 105 101 107 104 108 107 106 102 98 96 106 119 139 95 38 31 37 12 352 350 359 350 350 337
206 209 202 210 200 189 210 111 183 192 191 204 196 186 173 184 188 176 178 168 171 170 178 180 183 167 161 150 155 145 144 148 144 145 144 145 147 148 143 140 143 136 129 136 135 135 136 118 133 146 138 136 137 144 154 163 153 142 121 116 103 86 77 66 88 89 85 88 98 112 114 121 76 48 51 38 12 8 18 353 349 351 350 344 340
205 210 200 204 205 194 213 187 204 208 186 198 206 180 183 179 182 186 178 184 181 181 183 188 181 154 172 155 158 165 161 165 160 66 64 42 101 157 163 168 157 152 110 115 133 144 148 159 147 152 159 158 160 153 148 150 134 122 135 143 146 162 177 178 118 99 110 134 90 71 65 111 78 23 32 19 11 347 26 352 348 347 344 343 337
200 202 198 203 200 197 211 199 189 207 188 195 179 112 57 59 36 19 186 104 54 39 43 39 117 178 155 159 142 181 184 135 93 87 71 63 47 46 47 43 55 106 122 154 176 158 169 157 163 161 160 163 151 148 150 146 147 150 135 131 170 127 116 123 139 119 102 129 164 147 39 350 51 23 356 6 360 342 21 351 346 344 341 341 335
197 199 194 203 200 198 206 196 191 198 190 191 182 158 152 106 77 64 30 70 69 39 48 35 26 21 16 164 82 63 90 104 108 106 104 89 75 74 77 90 106 120 155 181 227 177 157 155 153 145 152 146 148 142 148 150 152 156 152 162 167 128 193 186 127 146 195 198 325 284 237 297 338 357 344 355 352 320 351 349 341 340 339 337 334
197 199 190 196 175 199 208 192 195 198 186 187 178 174 166 153 130 72 73 76 69 89 91 51 18 32 24 348 137 113 105 108 119 128 120 120 111 106 114 117 133 160 196 303 268 163 163 151 156 149 154 151 149 150 167 163 165 178 163 180 183 178 201 202 163 240 223 224 222 251 283 283 310 342 331 349 321 324 346 336 334 343 334 335 336
201 198 193 191 181 201 219 189 202 198 189 187 187 181 177 160 144 145 112 89 89 63 38 30 85 213 89 58 66 117 138 139 140 145 153 150 143 130 108 104 125 141 194 238 225 181 168 153 155 152 165 170 164 173 177 180 196 192 216 219 224 211 220 201 177 232 255 266 291 263 250 284 286 304 280 311 323 334 332 326 334 333 335 332 333
199 200 195 191 194 192 207 199 197 201 199 195 195 185 181 171 158 145 153 158 149 130 138 175 169 145 92 42 100 131 137 151 165 166 168 163 151 141 142 114 62 281 286 245 222 199 181 177 175 183 179 191 193 184 202 207 210 225 228 230 247 267 277 222 228 239 247 226 233 241 227 241 267 294 319 323 320 321 322 328 327 330 333 334 327
201 157 141 187 200 195 203 202 198 201 199 194 193 198 184 180 164 165 168 164 167 170 175 173 169 204 189 174 180 157 163 169 177 178 174 167 163 164 165 149 181 201 222 239 242 221 202 197 203 194 210 204 204 218 218 221 232 232 241 252 259 271 273 254 254 268 273 273 265 266 264 273 285 301 304 301 318 318 318 321 327 329 330 327 327
201 191 176 190 206 200 199 202 199 200 200 197 195 194 191 185 180 180 175 171 175 174 176 176 176 185 212 215 169 173 171 183 184 184 180 176 174 175 193 203 202 201 205 210 224 229 231 218 216 211 206 214 212 224 216 241 241 248 249 261 264 268 266 276 275 258 255 270 281 289 284 256 242 257 281 302 298 300 315 323 323 329 324 319 332
203 199 179 187 199 198 196 196 198 198 198 200 199 197 198 192 195 191 184 181 184 183 181 173 172 151 178 195 167 177 179 178 180 177 180 184 185 205 233 229 219 206 202 205 205 210 212 210 220 232 228 248 242 240 247 250 247 256 249 260 275 272 269 282 314 310 290 273 268 262 244 254 264 281 294 295 299 304 312 321 314 314 316 318 304
208 207 197 183 191 193 191 193 191 181 193 203 204 202 201 199 197 200 198 195 190 192 188 177 171 181 186 193 162 179 159 129 106 120 145 162 192 223 236 248 247 233 214 211 201 200 210 243 215 223 245 236 248 257 257 265 266 265 257 240 246 264 62 303 231 250 262 271 265 257 249 251 267 275 236 255 283 301 307 306 307 315 312 305 306
207 201 187 162 187 192 187 190 180 189 195 203 206 206 201 204 200 205 204 199 195 201 204 186 184 189 189 181 173 154 137 170 189 200 193 200 204 214 226 230 229 230 231 229 198 211 237 233 235 238 251 252 248 251 252 254 252 256 255 264 259 249 190 242 264 266 255 257 255 259 254 249 256 270 296 294 290 288 294 306 308 309 309 308 306
208 195 172 167 189 201 201 187 184 189 195 200 205 205 203 206 207 206 208 207 197 202 207 204 190 197 194 187 176 171 192 197 203 208 203 201 206 212 218 222 222 220 216 221 224 226 223 236 240 235 227 236 234 239 242 248 248 243 234 246 257 262 277 282 282 285 272 256 260 245 237 236 257 278 281 278 280 295 309 302 298 296 296 300 302
210 207 165 178 201 196 203 200 193 194 192 200 206 204 207 205 209 210 209 210 205 202 207 210 206 197 205 189 162 175 200 203 205 210 208 205 205 208 213 219 221 222 223 229 231 234 234 242 236 238 242 216 212 215 225 230 238 239 249 252 250 262 276 278 279 274 274 233 234 225 214 207 247 246 255 274 316 284 275 278 282 285 294 293 295
208 203 172 180 189 205 199 202 203 196 203 197 207 209 206 204 208 210 210 208 208 206 206 208 210 206 180 135 151 182 206 216 214 213 211 205 207 210 211 216 220 225 229 229 228 230 234 234 232 226 214 199 209 216 214 225 234 248 253 253 269 263 268 255 205 147 182 192 185 199 211 211 321 316 288 283 278 276 283 286 294 296 291 294 294
204 202 190 178 185 197 206 201 207 202 203 205 205 207 209 207 206 207 209 212 210 206 208 207 206 211 176 155 163 175 215 223 232 226 219 215 214 218 216 220 224 225 229 235 235 234 233 219 205 204 199 196 202 205 218 232 227 256 260 251 259 236 226 179 150 173 177 173 156 117 115 216 230 240 260 257 266 279 287 290 286 285 290 289 292
200 203 199 184 188 192 202 206 206 209 210 205 207 204 204 209 212 210 209 206 212 211 211 211 207 207 185 153 159 184 211 219 224 228 224 222 219 219 223 225 228 228 224 222 217 211 209 198 199 192 172 177 179 188 228 226 234 246 255 226 216 200 197 163 171 172 191 181 147 175 209 221 256 275 264 257 261 276 282 286 287 284 288 296 297
203 204 202 197 196 199 198 206 208 207 205 200 203 204 202 211 213 212 213 213 209 213 216 214 211 210 204 185 187 200 209 216 223 228 226 222 224 227 230 231 227 224 221 216 200 189 197 195 191 176 175 176 165 175 188 184 203 222 210 197 174 180 185 164 154 124 122 161 235 243 261 267 269 287 282 280 286 280 275 279 285 301 291 281 285
205 205 204 206 200 203 203 203 203 206 201 203 204 207 203 207 213 213 212 217 216 213 216 216 216 213 213 207 199 201 209 216 219 222 226 227 226 226 228 230 227 213 212 206 187 188 194 192 185 179 179 172 168 172 166 161 172 158 164 178 170 143 126 124 124 136 140 158 260 293 289 277 269 283 321 304 295 290 295 294 289 280 285 290 284
203 208 203 207 206 204 205 205 201 205 204 204 207 208 207 206 210 210 210 212 215 217 219 218 216 214 213 215 209 204 207 213 221 221 221 225 228 228 229 228 213 207 203 193 185 188 186 186 185 178 175 169 165 166 169 168 166 164 161 147 140 142 152 146 141 148 133 97 282 268 291 300 292 282 237 237 274 279 282 279 280 281 276 279 286
208 208 209 207 209 208 203 204 202 197 208 204 206 207 207 207 205 208 208 203 208 214 217 220 219 217 214 215 215 215 211 213 217 224 224 221 224 227 229 216 202 203 196 188 188 187 182 184 181 174 166 163 165 171 172 167 162 155 152 125 83 69 42 23 137 124 118 123 164 285 264 261 273 275 282 283 281 288 287 284 283 284 289 291 291
212 211 210 207 209 210 208 204 203 199 205 209 203 205 206 206 208 206 208 208 205 208 213 216 218 220 218 216 216 216 217 219 221 219 222 225 226 224 211 199 199 203 196 193 188 184 182 181 175 171 166 167 171 169 167 164 155 146 121 107 85 71 64 40 48 70 33 282 241 255 269 272 270 274 274 271 268 269 271 280 286 287 287 287 290
211 209 211 207 206 210 210 209 205 207 205 208 208 206 204 207 209 209 209 209 209 208 211 214 218 219 220 218 215 218 219 219 221 224 223 224 221 212 201 190 195 199 199 193 188 178 181 172 171 169 168 168 164 166 161 156 150 131 119 102 99 88 84 80 69 41 321 259 290 276 290 282 279 278 278 279 276 270 268 269 275 284 289 291 287
208 209 211 210 208 208 208 210 209 211 208 208 209 210 207 208 210 210 211 210 210 210 210 212 214 217 220 220 218 218 220 223 222 222 223 223 215 202 193 189 193 197 199 190 182 179 177 172 171 165 164 158 160 159 158 147 128 107 106 113 109 103 104 109 111 83 24 340 291 277 266 271 271 272 272 277 281 285 288 292 289 285 284 284 287